Погода в Глендейле

США     34°11′12″N   118°14′40″W
темп.,
°C
ветер,
м/с
пор.,
м/с
влажн.,
%
обл.,
%
осадки,
мм/ч
давл.,
гПа
погр.,
м
7 июля, чт
чт723:00+19в11580 0.0 1014139
02:00+18в12590 0.0 101499
05:00+18в11540 0.0 101468
08:00+22ююз11370 0.0 1015243
11:00+28ююз33260 0.0 1015759
14:00+30ююз44200 0.0 10141001
17:00+30ююз43190 0.0 1012855
20:00+23ююв22350 0.0 1013194
8 июля, пт
пт823:00+21в11425 0.0 1015119
02:00+20в114062 0.0 101570
05:00+19в1140100 0.0 101556
08:00+23ю113460 0.0 1016224
11:00+28ююз32269 0.0 1016668
14:00+31ююз441993 0.0 1015988
17:00+30ююз332075 0.0 1014900
20:00+24ююв22315 0.0 1015198
9 июля, сб
сб923:00+21в22365 0.0 1017113
02:00+20всв11370 0.0 101677
05:00+20св11360 0.0 101629
08:00+24юз11300 0.0 1017234
11:00+29юз32210 0.0 1017795
14:00+33ююз421412 0.0 10161096
17:00+32ююз42160 0.0 1015956
20:00+26ююз11271 0.0 1015188
10 июля, вс
вс1023:00+23всв11330 0.0 101795
02:00+22всв11344 0.0 101663
05:00+22св11354 0.0 101535
08:00+27зюз11260 0.0 1016202
11:00+31юз32210 0.0 1015731
14:00+34ююз44160 0.0 1013963
17:00+33ююз33170 0.0 1012715
20:00+26ююв22320 0.0 1013171
11 июля, пн
пн1123:00+24вюв11360 0.0 1014101
02:00+23юв11390 0.0 101394
05:00+23св11370 0.0 101239
08:00+26юз21320 0.0 1013200
11:00+31юз31250 0.0 1012602
14:00+34ююз42220 0.0 1011786
17:00+32ююз42220 0.0 1010705
20:00+25ююв22400 0.0 1011187